FW6809 Weather Reports


Display with metric or nautical units.
time (UTC)temp
F
wind
direction
speed
MPH
gust
MPH
rain 1hr
in
rain 24hr
in
rain mn
in
humidity
%
barometer
mb
20260831053059 71 0 0.0 0.0 0.00 0.00 0.00 96 1022.5
20260831051601 71 0 0.0 0.0 0.00 0.00 0.00 96 1022.7
20260831044605 71 0 0.0 0.0 0.00 0.00 0.00 97 1022.7
20260831043057 72 0 0.0 0.0 0.00 0.00 0.00 97 1022.7
20260831041645 72 0 0.0 0.0 0.00 0.00 0.00 96 1022.7
20260831040101 72 0 0.0 0.0 0.00 0.00 0.00 96 1022.8
20260831034607 72 0 0.0 0.0 0.00 0.00 0.00 95 1022.7
20260831033100 73 0 0.0 0.0 0.00 0.00 0.00 94 1022.8
20260831031604 74 0 0.0 0.0 0.00 0.00 0.00 93 1022.8
20260831030103 73 0 0.0 0.0 0.00 0.00 0.00 93 1022.8
20260831024624 72 0 0.0 0.0 0.00 0.00 0.00 97 1022.6
20260831023058 72 0 0.0 0.0 0.00 0.00 0.00 98 1022.8
20260831021604 71 0 0.0 0.0 0.00 0.00 0.00 97 1023.0
20260831014613 72 0 0.0 0.0 0.00 0.00 0.00 97 1022.8
20260831013111 72 0 0.0 0.0 0.00 0.00 0.00 96 1022.6
20260831011558 73 0 0.0 0.0 0.00 0.00 0.00 96 1022.2
20260831010124 73 0 0.0 0.0 0.00 0.00 0.00 95 1022.0
20260831004606 74 0 0.0 0.0 0.00 0.00 0.00 94 1021.8
20260831003100 75 0 0.0 0.0 0.00 0.00 0.00 94 1021.6
20260831001608 76 0 0.0 0.0 0.00 0.00 0.00 92 1021.5
20260831000113 77 0 0.0 0.0 0.00 0.00 0.00 90 1021.7
20260830234559 79 0 0.0 0.0 0.00 0.00 0.00 88 1021.5
20260830233109 80 0 0.0 0.0 0.00 0.00 0.00 85 1021.5
20260830231603 81 0 0.0 0.0 0.00 0.00 0.00 82 1021.5
20260830230107 82 0 0.0 1.0 0.00 0.00 0.00 75 1021.6
20260830224629 83 0 0.0 0.0 0.00 0.00 0.00 73 1021.6
20260830223134 84 0 0.0 3.0 0.00 0.00 0.00 72 1021.5
20260830221605 84 0 0.0 3.0 0.00 0.00 0.00 71 1021.4
20260830220106 84 184 0.0 0.0 0.00 0.00 0.00 72 1021.5
20260830214551 85 0 0.0 0.0 0.00 0.00 0.00 71 1021.5
20260830213052 85 0 0.0 1.0 0.00 0.00 0.00 70 1021.4
20260830211600 85 40 0.0 1.0 0.00 0.00 0.00 68 1021.4
20260830210056 86 0 0.0 4.0 0.00 0.00 0.00 68 1021.7
20260830204600 86 0 1.0 6.0 0.00 0.00 0.00 70 1021.8
20260830203059 86 186 1.0 6.0 0.00 0.00 0.00 70 1021.8
20260830201557 86 0 0.0 3.0 0.00 0.00 0.00 68 1021.9
20260830200055 86 0 0.0 3.0 0.00 0.00 0.00 68 1022.0
20260830194609 85 0 0.0 2.0 0.00 0.00 0.00 68 1022.2
20260830193104 86 152 0.0 3.0 0.00 0.00 0.00 70 1022.4
20260830191604 86 0 0.0 3.0 0.00 0.00 0.00 70 1022.6
20260830190105 85 0 0.0 4.0 0.00 0.00 0.00 72 1022.8
20260830184611 85 0 0.0 3.0 0.00 0.00 0.00 71 1023.0
20260830183106 87 0 0.0 2.0 0.00 0.00 0.00 69 1023.3
20260830181601 86 205 0.0 4.0 0.00 0.00 0.00 68 1023.6
20260830180104 85 0 0.0 2.0 0.00 0.00 0.00 74 1023.7
20260830174602 83 0 0.0 3.0 0.00 0.00 0.00 74 1023.9
20260830173102 82 0 0.0 2.0 0.00 0.00 0.00 78 1024.2
20260830171614 83 140 2.0 6.0 0.00 0.00 0.00 76 1024.2
20260830170059 82 0 0.0 3.0 0.00 0.00 0.00 79 1024.6
20260830164558 82 0 0.0 6.0 0.00 0.00 0.00 80 1024.8
20260830163104 83 0 0.0 1.0 0.00 0.00 0.00 77 1024.8
20260830161549 81 0 0.0 7.0 0.00 0.00 0.00 80 1025.0
20260830154558 81 142 0.0 2.0 0.00 0.00 0.00 81 1025.1
20260830153055 81 180 0.0 4.0 0.00 0.00 0.00 83 1025.1
20260830151610 80 172 0.0 4.0 0.00 0.00 0.00 83 1025.0
20260830144555 80 165 0.0 3.0 0.00 0.00 0.00 83 1025.1
20260830143100 80 107 0.0 2.0 0.00 0.00 0.00 84 1025.1
20260830141558 79 173 0.0 3.0 0.00 0.00 0.00 86 1025.0
20260830140053 77 179 0.0 0.0 0.00 0.00 0.00 93 1025.1
20260830134558 75 0 0.0 3.0 0.00 0.00 0.00 94 1025.1
20260830133104 74 0 0.0 1.0 0.00 0.00 0.00 95 1025.1
20260830131555 73 107 0.0 6.0 0.00 0.00 0.00 98 1025.1
20260830130114 72 155 0.0 1.0 0.00 0.00 0.00 100 1025.0
20260830124558 71 0 0.0 0.0 0.00 0.00 0.00 100 1024.9
20260830123100 70 0 0.0 0.0 0.00 0.00 0.00 100 1024.9
20260830121603 70 0 0.0 0.0 0.00 0.00 0.00 100 1024.6
20260830120101 69 0 0.0 0.0 0.00 0.00 0.00 100 1024.4
20260830114601 69 0 0.0 0.0 0.00 0.00 0.00 100 1024.2
20260830113101 68 0 0.0 0.0 0.00 0.00 0.00 100 1023.9
20260830111557 68 0 0.0 0.0 0.00 0.00 0.00 100 1023.8
20260830104553 68 0 0.0 0.0 0.00 0.00 0.00 100 1023.6
20260830103100 68 0 0.0 0.0 0.00 0.00 0.00 100 1023.6
20260830101559 69 0 0.0 0.0 0.00 0.00 0.00 100 1023.3
20260830100108 69 0 0.0 0.0 0.00 0.00 0.00 100 1023.2
20260830094600 69 0 0.0 0.0 0.00 0.00 0.00 100 1023.2
20260830093057 69 0 0.0 0.0 0.00 0.00 0.00 100 1023.3
20260830091557 69 0 0.0 0.0 0.00 0.00 0.00 100 1023.2
20260830090100 69 0 0.0 0.0 0.00 0.00 0.00 99 1023.2
20260830084627 69 0 0.0 0.0 0.00 0.00 0.00 99 1023.2
20260830083107 70 0 0.0 0.0 0.00 0.00 0.00 99 1023.1
20260830081636 70 0 0.0 0.0 0.00 0.00 0.00 99 1023.2
20260830080107 70 0 0.0 0.0 0.00 0.00 0.00 98 1023.1
20260830074622 70 0 0.0 0.0 0.00 0.00 0.00 98 1022.9
20260830073054 71 0 0.0 0.0 0.00 0.00 0.00 98 1023.0
20260830071607 71 0 0.0 0.0 0.00 0.00 0.00 97 1023.0
20260830064555 72 0 0.0 0.0 0.00 0.00 0.00 96 1023.1
20260830063103 72 0 0.0 0.0 0.00 0.00 0.00 96 1023.4
20260830061557 72 0 0.0 0.0 0.00 0.00 0.00 96 1023.5
20260830060059 73 0 0.0 0.0 0.00 0.00 0.00 95 1023.8
20260830054602 73 0 0.0 0.0 0.00 0.00 0.00 94 1023.9